Powrót do katalogu

SL-12 DEB

LostHEO
NORAD 27959·DEBRIS·🇷🇺 Russia

Wystrzelony Sep 16, 1987 z Baikonur Cosmodrome

Loading…

Następne Przeloty (najbliższe 24 godziny)

TLE

NieaktualneSource: Space-Track

Epoka: Dec 26, 2003, 05:35 UTC

1 27959U 87079AY  03360.23280923 -.00000028 +00000-0 +10000-3 0  9999
2 27959 065.6010 080.1924 5206229 070.9774 233.1802 04.11067039012335

Śledź SL-12 DEB w czasie rzeczywistym z AllMySat

Download on the App Store